Flag for India Weather past 2 weeks in Pathanamthitta, Kerala, India

77 °F

Passing clouds.

Feels Like: 78 °F
Forecast: 76 / 85 °F
Wind: No wind

Location: Thiruvananthapuram

Current Time: Nov 29, 2015 at 5:53:21 AM

Latest Report: Nov 29, 2015 at 4:30 AM

Visibility: 2 mi

Pressure: 29.80 "Hg

Humidity: 94%

Dew point: 75 °F

Location of PathanamthittaLocation

Historic Weather in Pathanamthitta — Graph


Pathanamthitta temperature yesterday

Maximum temperature yesterday: 88 °F (at 12:30 PM)
Minimum temperature yesterday: 79 °F (at 5:00 AM)
Average temperature yesterday: 82 °F

Past Weeks' High & Low Weather Summary

High90 °F (Nov 17, 1:00 PM)94% (Nov 15, 3:00 PM)29.89 "Hg (Nov 15, 3:00 PM)
Low77 °F (Nov 16, 1:30 AM)66% (Nov 21, 11:30 AM)29.68 "Hg (Nov 15, 3:00 PM)
Average82 °F82%29.78 "Hg
* Reported Nov 14 4:40 AM — Nov 29 4:30 AM, Pathanamthitta, Weather by CustomWeather, © 2015

Note: Actual official high and low records may vary slightly from our data, if they occured in-between our weather recording intervals... More about our weather records


Pathanamthitta weather history for previous 24 hours

Time TempWeatherWind HumidityBarometerVisibility
4:30 AM
Sun, Nov 29
77 °FPassing clouds.No wind94%29.80 "Hg2 mi
3:30 AM77 °FPassing clouds.No wind94%29.80 "Hg2 mi
2:30 AM79 °FPassing clouds.No wind89%29.83 "Hg2 mi
1:30 AM79 °FPassing clouds.No wind89%29.83 "Hg2 mi
1:00 AM79 °FPassing clouds.No wind89%29.86 "Hg2 mi
12:30 AM79 °FPartly cloudy.No wind89%29.86 "Hg2 mi
12:00 AM79 °FPartly cloudy.3 mph89%29.86 "Hg2 mi
11:30 PM
Sat, Nov 28
79 °FPartly cloudy.5 mph89%29.86 "Hg2 mi
11:00 PM79 °FPartly cloudy.6 mph89%29.89 "Hg2 mi
10:30 PM79 °FPartly cloudy.3 mph89%29.89 "Hg2 mi
10:00 PM79 °FPartly cloudy.3 mph89%29.89 "Hg2 mi
9:30 PM79 °FPartly cloudy.7 mph89%29.89 "Hg2 mi
9:00 PM79 °FPartly cloudy.3 mph89%29.89 "Hg2 mi
8:30 PM79 °FPartly cloudy.5 mph89%29.89 "Hg2 mi
8:00 PM79 °FPartly cloudy.6 mph94%29.89 "Hg2 mi
7:30 PM79 °FPartly cloudy.7 mph94%29.86 "Hg2 mi
7:00 PM79 °FPassing clouds.3 mph94%29.86 "Hg2 mi
6:30 PM79 °FPartly cloudy.5 mph94%29.83 "Hg2 mi
5:30 PM81 °FThunderstorms. Broken clouds.3 mph89%29.80 "Hg1 mi
5:00 PM81 °FThunderstorms. Broken clouds.6 mph84%29.80 "Hg1 mi
4:30 PM82 °FThunderstorms. Broken clouds.5 mph84%29.80 "Hg2 mi
3:30 PM88 °FThunderstorms. Broken clouds.6 mph66%29.80 "Hg3 mi
2:30 PM88 °FBroken clouds.9 mph70%29.80 "Hg4 mi
2:00 PM88 °FBroken clouds.7 mph70%29.80 "Hg4 mi
1:30 PM88 °FBroken clouds.7 mph70%29.83 "Hg4 mi
1:00 PM86 °FBroken clouds.3 mph75%29.83 "Hg4 mi
12:30 PM88 °FBroken clouds.9 mph70%29.86 "Hg4 mi
12:00 PM86 °FScattered clouds.6 mph70%29.86 "Hg4 mi
11:30 AM86 °FScattered clouds.5 mph70%29.86 "Hg4 mi
11:00 AM86 °FScattered clouds.6 mph75%29.89 "Hg4 mi
10:00 AM84 °FScattered clouds.5 mph79%29.89 "Hg3 mi
9:30 AM84 °FScattered clouds.6 mph79%29.89 "Hg3 mi
9:00 AM84 °FScattered clouds.No wind79%29.89 "Hg2 mi
8:30 AM82 °FScattered clouds.No wind84%29.89 "Hg2 mi
8:00 AM81 °FBroken clouds.No wind84%29.86 "Hg2 mi
7:30 AM81 °FBroken clouds.No wind84%29.86 "Hg2 mi
7:00 AM79 °FScattered clouds.3 mph89%29.83 "Hg2 mi
6:00 AM79 °FPassing clouds.No wind89%29.80 "Hg2 mi
5:30 AM79 °FPassing clouds.No wind89%29.80 "Hg2 mi
5:00 AM79 °FPartly cloudy.No wind89%29.80 "Hg2 mi
Weather by CustomWeather, © 2015

See weather overviewHow to use our weather pages